TimeEDT,TemperatureF,Dew PointF,Humidity,Sea Level PressureIn,VisibilityMPH,Wind Direction,Wind SpeedMPH,Gust SpeedMPH,PrecipitationIn,Events,Conditions,WindDirDegrees,DateUTC
12:14 AM,55.4,51.8,88,30.03,10.0,Calm,Calm,-,N/A,,Scattered Clouds,0,2012-09-17 04:14:00
12:34 AM,55.4,51.8,88,30.02,10.0,Calm,Calm,-,N/A,,Clear,0,2012-09-17 04:34:00
12:54 AM,57.2,50.0,77,30.03,10.0,Calm,Calm,-,N/A,,Clear,0,2012-09-17 04:54:00
1:14 AM,55.4,48.2,77,30.03,10.0,SW,3.5,-,N/A,,Scattered Clouds,220,2012-09-17 05:14:00
1:34 AM,57.2,48.2,72,30.03,10.0,Calm,Calm,-,N/A,,Clear,0,2012-09-17 05:34:00
1:54 AM,55.4,48.2,77,30.03,10.0,Calm,Calm,-,N/A,,Clear,0,2012-09-17 05:54:00
2:14 AM,51.8,48.2,88,30.03,10.0,Calm,Calm,-,N/A,,Clear,0,2012-09-17 06:14:00
2:34 AM,53.6,48.2,82,30.02,10.0,Calm,Calm,-,N/A,,Clear,0,2012-09-17 06:34:00
2:55 AM,51.8,48.2,88,30.01,10.0,Calm,Calm,-,N/A,,Clear,0,2012-09-17 06:55:00
3:15 AM,51.8,48.2,88,30.01,10.0,Calm,Calm,-,N/A,,Clear,0,2012-09-17 07:15:00
3:35 AM,51.8,48.2,88,30.01,10.0,Calm,Calm,-,N/A,,Clear,0,2012-09-17 07:35:00
3:55 AM,51.8,46.4,82,30.00,10.0,Calm,Calm,-,N/A,,Clear,0,2012-09-17 07:55:00
4:15 AM,50.0,46.4,87,29.99,10.0,Calm,Calm,-,N/A,,Clear,0,2012-09-17 08:15:00
4:35 AM,50.0,46.4,87,29.99,10.0,Calm,Calm,-,N/A,,Clear,0,2012-09-17 08:35:00
4:55 AM,50.0,46.4,87,29.98,10.0,Calm,Calm,-,N/A,,Clear,0,2012-09-17 08:55:00
5:15 AM,48.2,46.4,93,29.98,10.0,Calm,Calm,-,N/A,,Clear,0,2012-09-17 09:15:00
5:36 AM,53.6,46.4,77,29.98,10.0,Calm,Calm,-,N/A,,Clear,0,2012-09-17 09:36:00
5:56 AM,53.6,46.4,77,29.98,10.0,SSW,3.5,-,N/A,,Clear,200,2012-09-17 09:56:00
6:16 AM,55.4,44.6,67,29.97,10.0,South,4.6,-,N/A,,Clear,180,2012-09-17 10:16:00
6:31 AM,55.4,44.6,67,29.97,10.0,South,4.6,-,N/A,,Clear,190,2012-09-17 10:31:00
6:51 AM,55.4,46.4,72,29.98,10.0,South,4.6,-,N/A,,Clear,190,2012-09-17 10:51:00
7:11 AM,55.4,46.4,72,29.98,10.0,SSW,4.6,-,N/A,,Clear,210,2012-09-17 11:11:00
7:31 AM,53.6,46.4,77,29.98,10.0,SSW,3.5,-,N/A,,Clear,200,2012-09-17 11:31:00
7:51 AM,53.6,44.6,72,29.98,10.0,Calm,Calm,-,N/A,,Clear,0,2012-09-17 11:51:00
8:11 AM,53.6,46.4,77,29.98,10.0,Calm,Calm,-,N/A,,Clear,0,2012-09-17 12:11:00
8:31 AM,57.2,48.2,72,29.98,10.0,Calm,Calm,-,N/A,,Clear,0,2012-09-17 12:31:00
8:52 AM,57.2,48.2,72,29.97,10.0,SSW,3.5,-,N/A,,Clear,210,2012-09-17 12:52:00
9:12 AM,60.8,48.2,63,29.97,10.0,SSW,4.6,-,N/A,,Clear,210,2012-09-17 13:12:00
9:32 AM,60.8,50.0,68,29.97,10.0,Calm,Calm,-,N/A,,Clear,0,2012-09-17 13:32:00
9:52 AM,62.6,51.8,68,29.97,10.0,Calm,Calm,-,N/A,,Clear,0,2012-09-17 13:52:00
10:12 AM,64.4,51.8,64,29.97,10.0,SW,3.5,-,N/A,,Clear,220,2012-09-17 14:12:00
10:32 AM,66.2,50.0,56,29.97,10.0,SW,6.9,-,N/A,,Clear,220,2012-09-17 14:32:00
10:52 AM,68.0,50.0,52,29.96,10.0,SSW,6.9,-,N/A,,Clear,210,2012-09-17 14:52:00
11:12 AM,69.8,50.0,49,29.95,10.0,SSW,5.8,-,N/A,,Clear,210,2012-09-17 15:12:00
11:32 AM,71.6,50.0,46,29.96,10.0,SW,5.8,-,N/A,,Clear,230,2012-09-17 15:32:00
11:52 AM,73.4,50.0,44,29.95,10.0,SW,4.6,-,N/A,,Scattered Clouds,220,2012-09-17 15:52:00
12:13 PM,73.4,48.2,41,29.94,10.0,SSW,6.9,-,N/A,,Mostly Cloudy,210,2012-09-17 16:13:00
12:33 PM,73.4,50.0,44,29.93,10.0,SSW,5.8,-,N/A,,Scattered Clouds,210,2012-09-17 16:33:00
12:54 PM,73.4,50.0,44,29.92,10.0,SW,6.9,-,N/A,,Clear,220,2012-09-17 16:54:00
1:14 PM,75.2,48.2,38,29.92,10.0,SSW,6.9,-,N/A,,Clear,210,2012-09-17 17:14:00
1:35 PM,75.2,50.0,41,29.90,10.0,South,8.1,-,N/A,,Clear,180,2012-09-17 17:35:00
1:55 PM,77.0,51.8,41,29.89,10.0,South,10.4,-,N/A,,Clear,190,2012-09-17 17:55:00
2:15 PM,75.2,53.6,47,29.88,10.0,SSE,6.9,-,N/A,,Scattered Clouds,150,2012-09-17 18:15:00
2:35 PM,75.2,53.6,47,29.88,10.0,South,9.2,-,N/A,,Mostly Cloudy,180,2012-09-17 18:35:00
2:55 PM,75.2,53.6,47,29.86,10.0,SSW,9.2,-,N/A,,Mostly Cloudy,200,2012-09-17 18:55:00
3:15 PM,75.2,53.6,47,29.86,10.0,SSE,6.9,-,N/A,,Mostly Cloudy,160,2012-09-17 19:15:00
3:35 PM,75.2,53.6,47,29.85,10.0,SE,9.2,-,N/A,,Mostly Cloudy,140,2012-09-17 19:35:00
3:55 PM,75.2,55.4,50,29.84,10.0,SE,6.9,-,N/A,,Scattered Clouds,140,2012-09-17 19:55:00
4:15 PM,75.2,53.6,47,29.83,10.0,SE,6.9,-,N/A,,Clear,140,2012-09-17 20:15:00
4:36 PM,73.4,57.2,57,29.83,10.0,SE,5.8,-,N/A,,Scattered Clouds,140,2012-09-17 20:36:00
4:56 PM,73.4,55.4,53,29.82,10.0,SE,5.8,-,N/A,,Scattered Clouds,130,2012-09-17 20:56:00
5:11 PM,73.4,55.4,53,29.81,10.0,SE,4.6,-,N/A,,Scattered Clouds,140,2012-09-17 21:11:00
5:31 PM,73.4,57.2,57,29.80,10.0,Calm,Calm,-,N/A,,Mostly Cloudy,0,2012-09-17 21:31:00
5:51 PM,73.4,57.2,57,29.79,10.0,SE,3.5,-,N/A,,Mostly Cloudy,130,2012-09-17 21:51:00
6:11 PM,73.4,57.2,57,29.78,10.0,South,3.5,-,N/A,,Scattered Clouds,170,2012-09-17 22:11:00
6:31 PM,73.4,57.2,57,29.77,10.0,South,5.8,-,N/A,,Scattered Clouds,180,2012-09-17 22:31:00
6:51 PM,73.4,57.2,57,29.78,10.0,South,4.6,-,N/A,,Scattered Clouds,170,2012-09-17 22:51:00
7:11 PM,73.4,57.2,57,29.77,10.0,SSE,4.6,-,N/A,,Mostly Cloudy,160,2012-09-17 23:11:00
7:32 PM,71.6,57.2,60,29.77,10.0,South,4.6,-,N/A,,Overcast,180,2012-09-17 23:32:00
7:52 PM,71.6,57.2,60,29.77,10.0,South,4.6,-,N/A,,Overcast,190,2012-09-17 23:52:00
8:12 PM,71.6,57.2,60,29.77,10.0,South,4.6,-,N/A,,Overcast,170,2012-09-18 00:12:00
8:32 PM,71.6,57.2,60,29.76,10.0,SSE,3.5,-,N/A,,Overcast,160,2012-09-18 00:32:00
8:52 PM,71.6,57.2,60,29.75,10.0,SSE,11.5,16.1,N/A,,Mostly Cloudy,160,2012-09-18 00:52:00
9:12 PM,69.8,57.2,64,29.75,10.0,SSE,5.8,-,N/A,,Scattered Clouds,160,2012-09-18 01:12:00
9:32 PM,69.8,57.2,64,29.75,10.0,SSE,8.1,-,N/A,,Mostly Cloudy,160,2012-09-18 01:32:00
9:52 PM,69.8,59.0,68,29.74,10.0,SSE,6.9,-,N/A,,Mostly Cloudy,150,2012-09-18 01:52:00
10:12 PM,68.0,60.8,78,29.75,7.0,South,8.1,-,N/A,Rain,Heavy Rain,180,2012-09-18 02:12:00
10:33 PM,64.4,62.6,94,29.75,3.0,SSW,8.1,-,N/A,Rain,Light Rain,200,2012-09-18 02:33:00
10:53 PM,64.4,62.6,94,29.74,7.0,SSW,3.5,-,N/A,Rain,Rain,210,2012-09-18 02:53:00
11:13 PM,64.4,62.6,94,29.73,7.0,SSW,5.8,-,N/A,Rain,Light Rain,210,2012-09-18 03:13:00
11:33 PM,64.4,62.6,94,29.73,5.0,South,5.8,-,N/A,Rain,Rain,190,2012-09-18 03:33:00